SXN39 EGKB-ZZZZ

Flight info

Callsign SXN39
Flight time N/A
Altitude 2000
Route DCT
Aircraft A139/L-VGD/C

Departure

Time 2026-04-30 19:22
Airport London Biggin Hill Airport (EGKB)

Arrival

Time N/A
Airport ZZZZ
Time Latitude Longitude Altitude Speed Heading
2026-04-30 19:18 51.33118 0.02939 566 ft 0 kts 198°
2026-04-30 19:20 51.33105 0.02961 566 ft 6 kts 97°
2026-04-30 19:21 51.33104 0.02976 566 ft 0 kts 95°
2026-04-30 19:22 51.33577 0.03605 972 ft 94 kts 29°
2026-04-30 19:22 51.35695 0.05207 1997 ft 132 kts 12°
2026-04-30 19:23 51.38181 0.02109 1998 ft 165 kts 319°
2026-04-30 19:24 51.40111 0.00311 2064 ft 157 kts 331°
2026-04-30 19:24 51.41020 -0.00683 1995 ft 160 kts 328°
2026-04-30 19:24 51.42968 -0.02254 2009 ft 158 kts 340°
2026-04-30 19:25 51.45956 -0.04524 2047 ft 160 kts 339°
2026-04-30 19:26 51.47966 -0.06057 2028 ft 160 kts 339°
2026-04-30 19:26 51.50040 -0.07303 2067 ft 155 kts 351°
2026-04-30 19:26 51.51093 -0.07765 2031 ft 157 kts 351°
2026-04-30 19:27 51.53139 -0.09016 2027 ft 166 kts 326°
2026-04-30 19:27 51.54893 -0.11372 2064 ft 163 kts 323°
2026-04-30 19:28 51.55763 -0.12559 2055 ft 163 kts 322°
2026-04-30 19:28 51.57516 -0.14932 2025 ft 168 kts 321°
2026-04-30 19:29 51.59270 -0.17351 2095 ft 161 kts 323°
2026-04-30 19:29 51.60144 -0.18522 2016 ft 166 kts 323°
2026-04-30 19:30 51.61780 -0.20673 1965 ft 160 kts 331°
2026-04-30 19:30 51.63147 -0.22624 1445 ft 105 kts 230°
2026-04-30 19:31 51.62844 -0.23195 1066 ft 56 kts 126°
2026-04-30 19:31 51.62559 -0.22843 740 ft 50 kts 129°
2026-04-30 19:31 51.62327 -0.22605 325 ft 9 kts 163°
2026-04-30 19:32 51.62318 -0.22619 309 ft 0 kts 211°
2026-04-30 19:32 51.62317 -0.22621 304 ft 0 kts 208°